Location: Juzet
(42.9779°N, 0.7597°E)
Time: 17:51:08
(UTC+00:00)

Cosmos 1378 - Pass Details

Date: 14 July 2020
Orbit: 493 x 501 km, 82.5° (Epoch: 12 August)

Event Time Altitude Azimuth Distance (km) Brightness Sun altitude
Rises 03:26:58 0° 343° (NNW) 2,605 7.1 -10.2°
Reaches altitude 10° 03:29:11 10° 335° (NNW) 1,716 6.1 -9.9°
Maximum altitude 03:32:39 36° 268° (W) 807 3.8 -9.4°
Drops below altitude 10° 03:36:06 10° 200° (SSW) 1,702 5.3 -8.9°
Enters shadow 03:36:24 - 199° (SSW) 1,820 5.4 -8.9°
